Location: Haliburton Scout Reserve
(45.0900°N, 78.3200°W)
Time: 15:03:07
(UTC-04:00)

BlueWalker 3 - Visible Passes

Search period start: 24 March 2023 00:00
Search period end: 03 April 2023 00:00
Orbit: 497 x 515 km, 53.2° (Epoch: 24 March)

Date Brightness Start Highest point End Pass type
(mag) Time Alt. Az. Time Alt. Az. Time Alt. Az.
24 Mar 2.9 05:10:16 34° SSE 05:10:16 34° SSE 05:12:39 10° SE visible
25 Mar 4.4 04:52:34 12° SE 04:52:34 12° SE 04:52:57 10° SE visible
25 Mar 4.6 21:49:44 10° SW 21:49:58 11° SW 21:49:58 11° SW visible
26 Mar 2.8 21:30:00 10° SW 21:32:35 37° SSW 21:32:35 37° SSW visible
27 Mar 2.0 21:10:12 10° SW 21:14:01 56° SE 21:14:53 44° E visible
27 Mar 4.9 22:49:07 10° W 22:49:41 13° W 22:49:41 13° W visible
28 Mar 2.0 20:50:23 10° SW 20:54:13 58° SE 20:56:51 19° ENE visible
28 Mar 4.0 22:29:21 10° W 22:31:38 27° WNW 22:31:38 27° WNW visible
29 Mar 2.0 20:30:33 10° SW 20:34:23 60° SE 20:38:14 10° ENE visible
29 Mar 3.4 22:09:32 10° W 22:13:09 35° NNW 22:13:17 35° NNW visible
30 Mar 2.0 20:10:40 10° SW 20:14:31 62° SE 20:18:22 10° ENE visible
30 Mar 3.4 21:49:42 10° W 21:53:17 34° NNW 21:54:42 26° NNE visible
30 Mar 5.3 23:29:25 10° NW 23:29:27 10° NW 23:29:27 10° NW visible
31 Mar 3.5 21:29:49 10° W 21:33:25 34° NNW 21:35:55 17° NE visible
31 Mar 4.9 23:09:32 10° NW 23:10:39 16° NW 23:10:39 16° NW visible
01 Apr 3.5 21:09:55 10° W 21:13:29 33° NNW 21:16:58 10° NE visible
01 Apr 4.4 22:49:37 10° NW 22:51:42 21° NNW 22:51:42 21° NNW visible
02 Apr 3.5 20:49:58 10° W 20:53:32 33° NNW 20:57:05 10° NE visible
02 Apr 4.0 22:29:40 10° NW 22:32:38 24° N 22:32:38 24° N visible
